Flag for Gibraltar Weather past 2 weeks in Gibraltar, Gibraltar

Now
77 °F

Sunny.


Feels Like: 79 °F
Forecast: 65 / 74 °F
Wind: 12 mph from East

Location: Gibraltar Airport

Current Time: Sep 20, 2014 at 4:38:45 PM

Latest Report: Sep 20, 2014 at 2:50 PM


Visibility: 10 mi

Pressure: 30.01 "Hg

Humidity: 57%

Dew point: 61 °F

Location of GibraltarLocation

Historic Weather in Gibraltar — Graph

°F

Gibraltar temperature yesterday

Maximum temperature yesterday: 79 °F (at 3:50 PM)
Minimum temperature yesterday: 66 °F (at 5:50 AM)
Average temperature yesterday: 73 °F

Past Weeks' High & Low Weather Summary

 TemperatureHumidityPressure
High86 °F (Sep 5, 2:50 PM)100% (Sep 18, 7:50 AM)30.07 "Hg (Sep 18, 7:50 AM)
Low66 °F (Sep 16, 4:50 AM)25% (Sep 15, 5:50 PM)29.80 "Hg (Sep 16, 4:50 AM)
Average74 °F70%29.94 "Hg
* Reported Sep 5 2:50 PM — Sep 20 2:50 PM, Gibraltar, Weather by CustomWeather, © 2014

Note: Actual official high and low records may vary slightly from our data, if they occured in-between our weather recording intervals... More about our weather records

Advertising

Gibraltar weather history for previous 24 hours

 ConditionsComfort  
Time TempWeatherWind HumidityBarometerVisibility
2:50 PM
Sep 20
77 °FSunny.12 mph57%30.01 "Hg10 mi
1:50 PM77 °FSunny.7 mph54%30.04 "Hg10 mi
12:50 PM77 °FSunny.7 mph54%30.07 "Hg10 mi
11:50 AM77 °FSunny.7 mph51%30.07 "Hg10 mi
10:50 AM75 °FSunny.2 mph57%30.04 "Hg10 mi
9:50 AM70 °FSunny.5 mph73%30.01 "Hg10 mi
8:50 AM66 °FClear.5 mph88%30.01 "Hg10 mi
7:50 AM68 °FPassing clouds.3 mph78%29.98 "HgN/A
6:50 AM68 °FPassing clouds.5 mph78%29.98 "HgN/A
5:50 AM68 °FOvercast.7 mph83%29.98 "HgN/A
4:50 AM68 °FOvercast.2 mph83%29.95 "HgN/A
3:50 AM68 °FOvercast.2 mph83%29.98 "HgN/A
2:50 AM68 °FOvercast.1 mph83%29.98 "HgN/A
1:50 AM66 °FPassing clouds.5 mph88%29.98 "HgN/A
12:50 AM70 °FPassing clouds.5 mph83%30.01 "HgN/A
11:50 PM
Sep 19
72 °FOvercast.3 mph73%30.01 "HgN/A
10:50 PM73 °FPassing clouds.3 mph69%29.98 "HgN/A
9:50 PM73 °FPassing clouds.5 mph65%29.98 "HgN/A
8:50 PM75 °FBroken clouds.7 mph57%29.95 "HgN/A
7:50 PM75 °FPartly sunny.7 mph57%29.95 "HgN/A
6:50 PM77 °FBroken clouds.7 mph54%29.92 "HgN/A
5:50 PM75 °FBroken clouds.6 mph61%29.92 "HgN/A
4:50 PM77 °FPartly sunny.6 mph57%29.92 "HgN/A
Weather by CustomWeather, © 2014

See weather overviewHow to use our weather pages